Le nostre stazioni meteo in Italia

Pubblicità
Il mio iltempo24.it
Ustica, Italia (16400): Temperatura & dewpoint: 07.12.2019 23:00:00 - 13.12.2019 23:00:00 (CET)Ustica, Italia (16400): velocità del vento & gusts: 07.12.2019 23:00:00 - 13.12.2019 23:00:00 (CET)Ustica, Italia (16400): direzione del vento: 07.12.2019 23:00:00 - 13.12.2019 23:00:00 (CET)Ustica, Italia (16400): reduced air pressure: 07.12.2019 23:00:00 - 13.12.2019 23:00:00 (CET)Ustica, Italia (16400): visibility: 07.12.2019 23:00:00 - 13.12.2019 23:00:00 (CET)Ustica, Italia (16400): ore di luce: 07.12.2019 23:00:00 - 13.12.2019 23:00:00 (CET)
Data & Tempo tt [°C] td [°C] ff [km/h] ff [kn] fx [km/h] fx [kn] dd ppp [hPa] vv [km] sd [min]
13.12.2019 23:00:00 - - - - - - - - - -
13.12.2019 22:00:00 - - - - - - - - - -
13.12.2019 21:00:00 - - - - - - - - - -
13.12.2019 20:00:00 - - - - - - - - - -
13.12.2019 19:00:00 15,2 12,7 0 0 - - N 995,8 14 0
13.12.2019 18:00:00 14,8 12,3 0 0 - - N 996,2 14 0
13.12.2019 17:00:00 13,0 11,1 0 0 - - N 996,6 14 0
13.12.2019 16:00:00 14,2 12,1 0 0 - - N 997,4 16 0
13.12.2019 15:00:00 14,0 12,0 0 0 - - N 1000,4 16 0
13.12.2019 14:00:00 13,2 11,6 0 0 - - N 1000,3 16 0
13.12.2019 13:00:00 13,2 10,2 0 0 - - N 1000,4 16 0
13.12.2019 12:00:00 13,0 12,1 34 18 - - SO 1002,0 18 0
13.12.2019 11:00:00 14,0 13,2 34 18 53 28 SO 1002,8 18 0
13.12.2019 10:00:00 13,4 12,5 0 0 - - N 1003,4 10 0
13.12.2019 09:00:00 13,2 12,2 37 20 - - SO 1003,5 18 0
13.12.2019 08:00:00 13,0 12,1 26 14 - - SO 1004,5 18 0
13.12.2019 07:00:00 12,8 11,5 28 15 - - SO 1004,6 10 -
13.12.2019 06:00:00 - - - - - - - - - -
13.12.2019 05:00:00 - - - - - - - - - -
13.12.2019 04:00:00 - - - - - - - - - -
13.12.2019 03:00:00 - - - - - - - - - -
13.12.2019 02:00:00 - - - - - - - - - -
13.12.2019 01:00:00 - - - - - - - - - -
13.12.2019 00:00:00 - - - - - - - - - -
12.12.2019 23:00:00 - - - - - - - - - -
12.12.2019 22:00:00 - - - - - - - - - -
12.12.2019 21:00:00 - - - - - - - - - -
12.12.2019 20:00:00 - - - - - - - - - -
12.12.2019 19:00:00 13,0 9,2 4 2 - - N 1007,6 18 0
12.12.2019 18:00:00 13,0 10,4 21 11 58 32 O 1008,1 18 0
12.12.2019 17:00:00 12,4 9,6 4 2 77 42 N 1008,2 18 0
12.12.2019 16:00:00 - - - - - - - - - -
12.12.2019 15:00:00 14,0 8,2 16 9 40 22 NNO 1008,3 18 18
12.12.2019 14:00:00 - - - - - - - - - -
12.12.2019 13:00:00 13,8 9,2 35 19 - - NO 1008,1 18 24
12.12.2019 12:00:00 - - - - - - - - - -
12.12.2019 11:00:00 - - - - - - - - - -
12.12.2019 10:00:00 - - - - - - - - - -
12.12.2019 09:00:00 - - - - - - - - - -
12.12.2019 08:00:00 - - - - - - - - - -
12.12.2019 07:00:00 - - - - - - - - - -
12.12.2019 06:00:00 - - - - - - - - - -
12.12.2019 05:00:00 - - - - - - - - - -
12.12.2019 04:00:00 - - - - - - - - - -
12.12.2019 03:00:00 - - - - - - - - - -
12.12.2019 02:00:00 - - - - - - - - - -
12.12.2019 01:00:00 - - - - - - - - - -
12.12.2019 00:00:00 - - - - - - - - - -
11.12.2019 23:00:00 - - - - - - - - - -
11.12.2019 22:00:00 - - - - - - - - - -
11.12.2019 21:00:00 - - - - - - - - - -
11.12.2019 20:00:00 - - - - - - - - - -
11.12.2019 19:00:00 11,4 8,9 13 7 - - N 1011,3 10 -
11.12.2019 18:00:00 10,8 8,2 15 8 - - N 1011,2 16 -
11.12.2019 17:00:00 11,8 8,9 15 8 - - N 1010,8 20 -
11.12.2019 16:00:00 13,6 10,5 4 2 - - N 1010,3 20 18
11.12.2019 15:00:00 14,6 10,1 15 8 34 18 N 1010,3 25 60
11.12.2019 14:00:00 14,8 11,1 13 7 - - N 1010,4 20 12
11.12.2019 13:00:00 17,4 13,2 4 2 - - N 1010,4 25 60
11.12.2019 12:00:00 16,8 10,7 8 4 - - N 1011,3 25 48
11.12.2019 11:00:00 16,6 11,3 9 5 - - N 1011,7 30 60
11.12.2019 10:00:00 15,6 10,9 9 5 - - N 1012,2 25 60
11.12.2019 09:00:00 14,2 10,4 13 7 - - N 1011,7 25 60
11.12.2019 08:00:00 12,4 10,0 15 8 - - N 1011,5 25 60
11.12.2019 07:00:00 12,2 9,7 11 6 - - N 1010,9 20 -
11.12.2019 06:00:00 - - - - - - - - - -
11.12.2019 05:00:00 - - - - - - - - - -
11.12.2019 04:00:00 - - - - - - - - - -
11.12.2019 03:00:00 - - - - - - - - - -
11.12.2019 02:00:00 - - - - - - - - - -
11.12.2019 01:00:00 - - - - - - - - - -
11.12.2019 00:00:00 - - - - - - - - - -
10.12.2019 23:00:00 - - - - - - - - - -
10.12.2019 22:00:00 - - - - - - - - - -
10.12.2019 21:00:00 - - - - - - - - - -
10.12.2019 20:00:00 - - - - - - - - - -
10.12.2019 19:00:00 11,0 9,6 4 2 - - N 1009,4 16 -
10.12.2019 18:00:00 11,8 9,7 5 3 - - N 1008,8 16 -
10.12.2019 17:00:00 13,2 10,1 4 2 - - N 1008,0 20 -
10.12.2019 16:00:00 15,8 10,7 4 2 - - NNE 1007,7 25 60
10.12.2019 15:00:00 15,0 11,0 5 3 - - ESE 1007,2 25 60
10.12.2019 14:00:00 14,2 11,2 9 5 - - S 1007,3 25 60
10.12.2019 13:00:00 13,4 11,0 9 5 - - S 1007,9 25 24
10.12.2019 12:00:00 13,0 10,6 13 7 - - S 1008,2 20 30
10.12.2019 11:00:00 12,0 9,9 5 3 - - O 1009,0 20 18
10.12.2019 10:00:00 13,2 11,5 4 2 - - - 1009,0 20 18
10.12.2019 09:00:00 10,4 9,0 9 5 - - N 1009,0 25 24
10.12.2019 08:00:00 10,8 9,0 4 2 38 21 N 1008,9 20 -
10.12.2019 07:00:00 12,0 9,5 4 2 - - N 1008,5 20 -
10.12.2019 06:00:00 - - - - - - - - - -
10.12.2019 05:00:00 - - - - - - - - - -
10.12.2019 04:00:00 - - - - - - - - - -
10.12.2019 03:00:00 - - - - - - - - - -
10.12.2019 02:00:00 - - - - - - - - - -
10.12.2019 01:00:00 - - - - - - - - - -
10.12.2019 00:00:00 - - - - - - - - - -
09.12.2019 23:00:00 - - - - - - - - - -
09.12.2019 22:00:00 - - - - - - - - - -
09.12.2019 21:00:00 - - - - - - - - - -
09.12.2019 20:00:00 - - - - - - - - - -
09.12.2019 19:00:00 14,2 12,9 4 2 - - N 1013,0 16 -
09.12.2019 18:00:00 14,2 12,5 4 2 - - N 1012,9 16 -
09.12.2019 17:00:00 14,8 12,8 4 2 32 18 N 1013,2 20 -
09.12.2019 16:00:00 15,0 12,7 8 4 - - - 1013,3 20 12
09.12.2019 15:00:00 16,0 13,4 16 9 35 19 NO 1013,2 30 60
09.12.2019 14:00:00 16,2 14,0 21 11 - - NNO 1013,4 25 60
09.12.2019 13:00:00 16,0 13,7 4 2 - - N 1014,1 25 18
09.12.2019 12:00:00 15,4 13,5 24 13 - - SSO 1015,0 25 -
09.12.2019 11:00:00 15,6 13,7 22 12 - - S 1016,0 25 18
09.12.2019 10:00:00 15,8 13,5 16 9 - - SSO 1016,3 25 24
09.12.2019 09:00:00 14,4 12,4 15 8 - - SO 1016,7 25 18
09.12.2019 08:00:00 14,0 12,0 15 8 - - SO 1016,6 25 -
09.12.2019 07:00:00 13,8 11,8 11 6 - - SSO 1016,8 10 -
09.12.2019 06:00:00 - - - - - - - - - -
09.12.2019 05:00:00 - - - - - - - - - -
09.12.2019 04:00:00 - - - - - - - - - -
09.12.2019 03:00:00 - - - - - - - - - -
09.12.2019 02:00:00 - - - - - - - - - -
09.12.2019 01:00:00 - - - - - - - - - -
09.12.2019 00:00:00 - - - - - - - - - -
08.12.2019 23:00:00 - - - - - - - - - -
08.12.2019 22:00:00 - - - - - - - - - -
08.12.2019 21:00:00 - - - - - - - - - -
08.12.2019 20:00:00 - - - - - - - - - -
08.12.2019 19:00:00 14,2 12,2 8 4 - - SSE 1020,3 16 -
08.12.2019 18:00:00 14,6 12,6 9 5 - - S 1020,8 16 -
08.12.2019 17:00:00 15,0 13,0 5 3 - - S 1020,6 20 -
08.12.2019 16:00:00 17,0 15,1 4 2 - - N 1020,4 20 -
08.12.2019 15:00:00 17,6 15,4 4 2 - - N 1020,5 20 48
08.12.2019 14:00:00 17,0 14,8 8 4 - - OSO 1020,8 20 24
08.12.2019 13:00:00 17,8 14,7 9 5 - - OSO 1021,6 25 60
08.12.2019 12:00:00 18,2 15,4 13 7 - - SSO 1022,6 20 42
08.12.2019 11:00:00 18,0 15,5 13 7 - - SO 1022,9 25 60
08.12.2019 10:00:00 16,6 14,4 11 6 - - SO 1023,3 20 30
08.12.2019 09:00:00 14,4 12,1 11 6 - - SSO 1022,9 25 30
08.12.2019 08:00:00 14,2 12,2 16 9 - - SO 1022,8 20 -
08.12.2019 07:00:00 13,8 11,4 16 9 - - SSO 1022,2 20 -
08.12.2019 06:00:00 - - - - - - - - - -
08.12.2019 05:00:00 - - - - - - - - - -
08.12.2019 04:00:00 - - - - - - - - - -
08.12.2019 03:00:00 - - - - - - - - - -
08.12.2019 02:00:00 - - - - - - - - - -
08.12.2019 01:00:00 - - - - - - - - - -
08.12.2019 00:00:00 - - - - - - - - - -
07.12.2019 23:00:00 - - - - - - - - - -

tt = Temperatura
td = dewpoint
ff = velocità del vento
fx = gusts
dd = direzione del vento
ppp = reduced air pressure
vv = visibility
sd = ore di luce

Stazioni seguenti

WeatherPro
AMSI
MeteoEarth